Skip Page Navigation
NASA JPL Caltech
NASA Logo - Jet Propulsion Laboratory + View the NASA Portal
+ Center for Near-Earth Object Studies
JPL Home Earth Solar System Stars & Galaxies Technology
JPL Solar System Dynamics
BODIES ORBITS EPHEMERIDES TOOLS PHYSICAL DATA DISCOVERY FAQ SITE MAP
IMPORTANT: The SSD Announcement email list is now available. Major changes are coming in the near future, including possible hostname and/or URL changes. To be notified of such changes, subscribe to this email list.

Please visit this page for more details.


JPL Small-Body Database Browser
Search: [ help ]  
359033 (2008 WN63)
Classification: Main-belt Asteroid          SPK-ID: 2359033
Ephemeris | Orbit Diagram | Orbital Elements | Mission Design | Physical Parameters | Discovery Circumstances ]

[ show orbit diagram ]
Orbital Elements at Epoch 2459000.5 (2020-May-31.0) TDB
Reference: JPL 13 (heliocentric ecliptic J2000)
 Element Value Uncertainty (1-sigma)   Units 
e .09939453342734424 5.9304e-08  
a 2.322464037636921 2.2355e-08 au
q 2.091623808214213 1.3809e-07 au
i 7.504106631160525 8.9041e-06 deg
node 53.03975792862371 3.8386e-05 deg
peri 59.53789174002012 5.711e-05 deg
M 57.11780160393335 4.2105e-05 deg
tp 2458795.388076912258
(2019-Nov-07.88807691)
0.00015029 TDB
period 1292.771959670487
3.54
1.8665e-05
5.11e-08
d
yr
n .2784713864707895 4.0206e-09 deg/d
Q 2.553304267059629 2.4577e-08 au
  Orbit Determination Parameters
   # obs. used (total)      242  
   data-arc span      6622 days (18.13 yr)  
   first obs. used      2001-12-19  
   last obs. used      2020-02-05  
   planetary ephem.      DE431  
   SB-pert. ephem.      SB431-N16  
   condition code      0  
   norm. resid. RMS      .53266  
   source      ORB  
   producer      Otto Matic  
   solution date      2020-Feb-26 00:41:13  

Additional Information
 Earth MOID = 1.11959 au 
 Jupiter MOID = 2.54842 au 
 T_jup = 3.559 
[ hide covariance matrix ]
Orbital Elements at Epoch 2457389.5 (2016-Jan-02.0) TDB
Reference: JPL 13 (heliocentric ecliptic J2000)
 Element Value Uncertainty (1-sigma)   Units 
e .09880411974796793 5.9045e-08  
q 2.093043150592189 1.3728e-07 au
tp 2457503.821808191399
(2016-Apr-25.32180819)
0.00014706 TDB
node 53.06174574628664 3.8405e-05 deg
peri 59.94562110144817 5.7356e-05 deg
i 7.502565754793126 8.9008e-06 deg
  Orbit Determination Parameters
   # obs. used (total)      242  
   data-arc span      6622 days (18.13 yr)  
   first obs. used      2001-12-19  
   last obs. used      2020-02-05  
   planetary ephem.      DE431  
   SB-pert. ephem.      SB431-N16  
   condition code      0  
   norm. resid. RMS      .53266  
   source      ORB  
   producer      Otto Matic  
   solution date      2020-Feb-26 00:41:13  

Additional Information
 Jupiter MOID = 2.54842 au 
 T_jup = 3.559 
Orbit Covariance (6×6)
  e q tp node peri i
e 3.48627450841917E-15 -8.018953124235854E-15 -3.888224241131426E-12 -1.753200703755494E-15 -1.056345597674881E-12 -2.392334641620057E-15
q -8.018953124235854E-15 1.884649461715511E-14 9.535827331268043E-12 3.808252075894201E-15 2.592189496716822E-12 5.925420540155965E-15
tp -3.888224241131426E-12 9.535827331268043E-12 2.162752766555312E-8 -4.895362319509038E-12 6.274422911332935E-9 5.348355436379362E-12
node -1.753200703755494E-15 3.808252075894201E-15 -4.895362319509038E-12 1.474966317235964E-9 -1.462633769504814E-9 2.993082741553583E-11
peri -1.056345597674881E-12 2.592189496716822E-12 6.274422911332935E-9 -1.462633769504814E-9 3.289707781245619E-9 -2.795582922941882E-11
i -2.392334641620057E-15 5.925420540155965E-15 5.348355436379362E-12 2.993082741553583E-11 -2.795582922941882E-11 7.922470082652011E-11

Ephemeris | Orbit Diagram | Orbital Elements | Mission Design | Physical Parameters | Discovery Circumstances ]

Physical Parameter Table
Parameter Symbol Value Units Sigma Reference Notes
absolute magnitude H 16.9   n/a MPO455590  

359033 (2008 WN63)          Discovered 2008-Nov-20 by LINEAR at Socorro
Reference: 20130327/Numbers.arcLast Updated: 2013-03-29
Ephemeris | Orbit Diagram | Orbital Elements | Mission Design | Physical Parameters | Discovery Circumstances ]
ABOUT SSD CREDITS/AWARDS PRIVACY/COPYRIGHT GLOSSARY LINKS
FirstGov 2020-Apr-01 18:57 UT
(server date/time)  
NASA Home Page
Site Manager:   Ryan S. Park
Webmaster  Alan B. Chamberlin